星链-35738(STARLINK-35738)

导读

STARLINK-35738是美国SpaceX星链星座的组网卫星,于2025年12月15日发射入轨,属于星链低轨互联网星座建设的一部分。星链系统旨在为全球提供高速低延迟宽带互联网服务,该卫星延续了星链标准设计,承担太空组网任务,进一步扩充星座规模,推进全球网络覆盖的部署进程。

基本信息
目录编号:
67116
目录名称:
STARLINK-35738
国际标识:
2025-299Q
轨道中心:
EARTH
卫星名称:
星链-35738
卫星全名:
星链-35738(STARLINK-35738)
卫星状态:
在轨 (已飞行270 天)
发射日期:
2025-12-15 UTC
国别 :
美国 (US)
星等 :
--
该卫星已列入 空间交会检测服务 Space Conjunction Data Service (SCDS) ,当前飞行风险评估等级: 无高风险
轨道信息
数据来源 国际轨道数据 AOE轨道数据
星历时间 2026-09-11T13:04:46+0800
11小时前
查看轨道信息
2026-09-10T00:00:00+0800
2天前
查看轨道信息
半长轴 6861.121km 6861.284km
偏心率 0.0000995 0.0001103
轨道倾角 43.000° 43.000°
近地点辐角 277.854° 250.724°
升交点赤经 200.894° 209.624°
平近点角 82.220° 243.087°
近地点 482.301km 482.39km
远地点 483.667km 483.904km
周期 94.265分钟 94.269分钟
每日圈数 15.276018 15.275474
详细信息
固有亮度:
5
最大亮度:
2.5
卫星平台:
Starlink V1.0
覆盖范围:
全球
运营商:
太空探索技术公司
运营商所在国:
美国
制造商(研发单位):
太空探索技术公司
制造商所在国:
美国
使用方式:
暂无
卫星简介
Starlink 计划是 SpaceX 推出的全球卫星互联网项目,通过发射低轨道卫星,为全球尤其是偏远地区提供高速、低延迟的互联网服务。自 2019 年起,Starlink 已部署数千颗卫星,旨在缩小全球数字鸿沟,推动互联网普及。该项目还为军事、航空等行业提供通信支持,带来广泛经济效益。
2D轨道图
3D轨道图
轨道高度分析图
轨道倾角分析图
轨道综合分析图
查看轨道综合分析图
与全量物体交会距离演化趋势
与全量物体交会风险概率演化趋势